Flag for Trinidad and Tobago Weather past 2 weeks in Port of Spain, Trinidad and Tobago

Now
90 °F

Scattered clouds.


Feels Like: 92 °F
Forecast: 79 / 90 °F
Wind: 18 mph from Southeast

Location: Piarco International Airport - Trinidad

Current Time: Apr 28, 2015 at 3:07:35 PM

Latest Report: Apr 28, 2015 at 2:00 PM


Visibility: 3 mi

Pressure: 29.89 "Hg

Humidity: 46%

Dew point: 66 °F

Location of Port of SpainLocation

Historic Weather in Port of Spain — Graph

°F

Port of Spain temperature yesterday

Maximum temperature yesterday: 91 °F (at 11:00 AM)
Minimum temperature yesterday: 77 °F (at 5:00 AM)
Average temperature yesterday: 83 °F

Past Weeks' High & Low Weather Summary

 TemperatureHumidityPressure
High91 °F (Apr 22, 12:00 PM)100% (Apr 19, 9:00 PM)30.04 "Hg (Apr 19, 9:00 PM)
Low72 °F (Apr 19, 9:00 PM)44% (Apr 27, 2:00 PM)29.86 "Hg (Apr 16, 5:00 PM)
Average82 °F76%29.93 "Hg
* Reported Apr 13 6:00 PM — Apr 28 2:00 PM, Port of Spain, Weather by CustomWeather, © 2015

Note: Actual official high and low records may vary slightly from our data, if they occured in-between our weather recording intervals... More about our weather records

Advertising

Port of Spain weather history for previous 24 hours

 ConditionsComfort  
Time TempWeatherWind HumidityBarometerVisibility
2:00 PM
Tue, Apr 28
90 °FScattered clouds.18 mph46%29.89 "Hg3 mi
1:00 PM91 °FHot.15 mph46%29.89 "Hg1 mi
12:00 PM90 °FHot.15 mph55%29.92 "Hg1 mi
11:00 AM90 °FPartly sunny.16 mph52%29.95 "Hg6 mi
10:00 AM88 °FPartly sunny.14 mph55%29.98 "Hg6 mi
9:00 AM90 °FPartly sunny.15 mph55%29.98 "HgN/A
7:00 AM79 °FPassing clouds.No wind84%29.95 "Hg2 mi
6:00 AM75 °FPassing clouds.No wind94%29.92 "Hg4 mi
5:00 AM75 °FPassing clouds.No wind94%29.89 "Hg4 mi
4:00 AM75 °FPassing clouds.No wind94%29.89 "Hg5 mi
3:00 AM75 °FPassing clouds.No wind94%29.86 "Hg5 mi
2:00 AM77 °FPassing clouds.No wind89%29.89 "Hg5 mi
1:00 AM77 °FPassing clouds.No wind89%29.89 "Hg5 mi
12:00 AM77 °FPassing clouds.No wind89%29.92 "Hg5 mi
11:00 PM
Mon, Apr 27
77 °FPassing clouds.No wind89%29.92 "Hg5 mi
10:00 PM79 °FPassing clouds.No wind84%29.92 "Hg5 mi
9:00 PM79 °FPassing clouds.3 mph84%29.92 "Hg5 mi
8:00 PM81 °FPassing clouds.No wind79%29.92 "Hg5 mi
7:00 PM81 °FPassing clouds.12 mph79%29.89 "Hg5 mi
6:00 PM82 °FPassing clouds.12 mph70%29.86 "Hg5 mi
5:00 PM86 °FPassing clouds.15 mph59%29.86 "Hg5 mi
4:00 PM88 °FPassing clouds.15 mph52%29.86 "Hg5 mi
3:00 PM90 °FPassing clouds.15 mph49%29.86 "Hg5 mi
Weather by CustomWeather, © 2015

See weather overviewHow to use our weather pages